| time (UTC) | temp F | wind direction | speed MPH | gust MPH | rain 1hr in | rain 24hr in | rain mn in | humidity % | barometer mb |
| 20260906214054 | 59 | 181 | 1.0 | 5.0 | 0.00 | 0.38 | 0.38 | 93 | 1017.0 |
| 20260906213555 | 59 | 0 | 0.0 | 5.0 | 0.00 | 0.38 | 0.38 | 94 | 1017.1 |
| 20260906213103 | 59 | 190 | 0.0 | 3.0 | 0.00 | 0.38 | 0.38 | 94 | 1017.1 |
| 20260906212554 | 58 | 0 | 0.0 | 3.0 | 0.00 | 0.38 | 0.38 | 94 | 1017.0 |
| 20260906212058 | 58 | 0 | 0.0 | 3.0 | 0.00 | 0.38 | 0.38 | 94 | 1017.0 |
| 20260906211606 | 58 | 0 | 0.0 | 1.0 | 0.00 | 0.38 | 0.38 | 94 | 1016.9 |
| 20260906211054 | 58 | 0 | 0.0 | 1.0 | 0.00 | 0.38 | 0.38 | 94 | 1016.9 |
| 20260906210554 | 58 | 0 | 0.0 | 1.0 | 0.00 | 0.38 | 0.38 | 94 | 1016.8 |
| 20260906210117 | 58 | 0 | 0.0 | 1.0 | 0.00 | 0.38 | 0.38 | 94 | 1016.9 |
| 20260906205558 | 58 | 0 | 0.0 | 0.0 | 0.00 | 0.38 | 0.38 | 94 | 1016.8 |
| 20260906205056 | 58 | 0 | 0.0 | 0.0 | 0.00 | 0.38 | 0.38 | 94 | 1016.8 |
| 20260906204617 | 58 | 0 | 0.0 | 0.0 | 0.00 | 0.38 | 0.38 | 94 | 1016.8 |
| 20260906204055 | 58 | 0 | 0.0 | 0.0 | 0.00 | 0.38 | 0.38 | 94 | 1016.9 |
| 20260906203554 | 57 | 0 | 0.0 | 1.0 | 0.00 | 0.38 | 0.38 | 94 | 1016.8 |
| 20260906203102 | 57 | 0 | 0.0 | 1.0 | 0.00 | 0.38 | 0.38 | 94 | 1016.8 |
| 20260906202554 | 57 | 0 | 0.0 | 3.0 | 0.00 | 0.38 | 0.38 | 94 | 1016.7 |
| 20260906202055 | 58 | 0 | 0.0 | 3.0 | 0.00 | 0.38 | 0.38 | 94 | 1016.7 |
| 20260906201558 | 58 | 157 | 0.0 | 3.0 | 0.00 | 0.38 | 0.38 | 95 | 1016.7 |
| 20260906201055 | 58 | 0 | 0.0 | 3.0 | 0.00 | 0.38 | 0.38 | 95 | 1016.7 |
| 20260906200555 | 57 | 0 | 0.0 | 3.0 | 0.00 | 0.38 | 0.38 | 95 | 1016.7 |
| 20260906200105 | 57 | 0 | 0.0 | 0.0 | 0.00 | 0.38 | 0.38 | 95 | 1016.7 |
| 20260906195555 | 57 | 0 | 0.0 | 1.0 | 0.00 | 0.38 | 0.38 | 95 | 1016.6 |
| 20260906195054 | 57 | 0 | 0.0 | 2.0 | 0.00 | 0.38 | 0.38 | 95 | 1016.5 |
| 20260906194558 | 57 | 0 | 0.0 | 2.0 | 0.00 | 0.38 | 0.38 | 95 | 1016.6 |
| 20260906194054 | 57 | 0 | 0.0 | 1.0 | 0.00 | 0.38 | 0.38 | 95 | 1016.6 |
| 20260906193554 | 57 | 0 | 0.0 | 2.0 | 0.00 | 0.38 | 0.38 | 95 | 1016.6 |
| 20260906193104 | 57 | 0 | 0.0 | 2.0 | 0.00 | 0.38 | 0.38 | 95 | 1016.6 |
| 20260906192555 | 57 | 0 | 0.0 | 1.0 | 0.00 | 0.38 | 0.38 | 95 | 1016.6 |
| 20260906192100 | 57 | 0 | 0.0 | 1.0 | 0.00 | 0.38 | 0.38 | 95 | 1016.6 |
| 20260906191608 | 57 | 0 | 0.0 | 1.0 | 0.00 | 0.38 | 0.38 | 95 | 1016.6 |
| 20260906191057 | 57 | 0 | 0.0 | 1.0 | 0.01 | 0.38 | 0.38 | 95 | 1016.6 |
| 20260906190557 | 56 | 0 | 0.0 | 1.0 | 0.01 | 0.38 | 0.38 | 95 | 1016.6 |
| 20260906190058 | 56 | 0 | 0.0 | 1.0 | 0.01 | 0.38 | 0.38 | 95 | 1016.5 |
| 20260906185557 | 56 | 0 | 0.0 | 1.0 | 0.01 | 0.38 | 0.38 | 95 | 1016.5 |
| 20260906185055 | 56 | 0 | 0.0 | 1.0 | 0.01 | 0.38 | 0.38 | 95 | 1016.4 |
| 20260906184605 | 56 | 0 | 0.0 | 1.0 | 0.01 | 0.38 | 0.38 | 95 | 1016.4 |
| 20260906184100 | 56 | 0 | 0.0 | 1.0 | 0.01 | 0.38 | 0.38 | 95 | 1016.4 |
| 20260906183554 | 56 | 0 | 0.0 | 0.0 | 0.02 | 0.38 | 0.38 | 95 | 1016.5 |
| 20260906183105 | 56 | 0 | 0.0 | 1.0 | 0.03 | 0.38 | 0.38 | 95 | 1016.5 |
| 20260906182558 | 56 | 0 | 0.0 | 1.0 | 0.03 | 0.38 | 0.38 | 95 | 1016.5 |
| 20260906182054 | 56 | 0 | 0.0 | 1.0 | 0.04 | 0.38 | 0.38 | 95 | 1016.5 |
| 20260906181603 | 56 | 0 | 0.0 | 1.0 | 0.05 | 0.38 | 0.38 | 95 | 1016.4 |
| 20260906181054 | 56 | 0 | 0.0 | 0.0 | 0.04 | 0.37 | 0.37 | 95 | 1016.5 |
| 20260906180557 | 56 | 0 | 0.0 | 0.0 | 0.05 | 0.37 | 0.37 | 95 | 1016.4 |
| 20260906180130 | 56 | 0 | 0.0 | 1.0 | 0.05 | 0.37 | 0.37 | 95 | 1016.4 |
| 20260906175555 | 56 | 0 | 0.0 | 1.0 | 0.06 | 0.37 | 0.37 | 95 | 1016.3 |
| 20260906175055 | 56 | 0 | 0.0 | 0.0 | 0.06 | 0.37 | 0.37 | 95 | 1016.4 |
| 20260906174606 | 56 | 0 | 0.0 | 0.0 | 0.06 | 0.37 | 0.37 | 95 | 1016.4 |
| 20260906174055 | 56 | 0 | 0.0 | 0.0 | 0.06 | 0.36 | 0.36 | 95 | 1016.3 |
| 20260906173554 | 56 | 0 | 0.0 | 0.0 | 0.07 | 0.36 | 0.36 | 95 | 1016.3 |
| 20260906173102 | 56 | 0 | 0.0 | 0.0 | 0.07 | 0.35 | 0.35 | 95 | 1016.4 |
| 20260906172555 | 55 | 0 | 0.0 | 0.0 | 0.08 | 0.35 | 0.35 | 95 | 1016.4 |
| 20260906172054 | 55 | 0 | 0.0 | 0.0 | 0.08 | 0.34 | 0.34 | 95 | 1016.4 |
| 20260906171600 | 55 | 0 | 0.0 | 0.0 | 0.08 | 0.33 | 0.33 | 95 | 1016.4 |
| 20260906171054 | 55 | 0 | 0.0 | 0.0 | 0.10 | 0.33 | 0.33 | 95 | 1016.4 |
| 20260906170555 | 55 | 0 | 0.0 | 0.0 | 0.10 | 0.32 | 0.32 | 95 | 1016.3 |
| 20260906170113 | 55 | 0 | 0.0 | 0.0 | 0.11 | 0.32 | 0.32 | 94 | 1016.1 |
| 20260906165555 | 55 | 0 | 0.0 | 0.0 | 0.11 | 0.31 | 0.31 | 94 | 1016.2 |
| 20260906165054 | 55 | 0 | 0.0 | 1.0 | 0.12 | 0.31 | 0.31 | 94 | 1016.3 |
| 20260906164600 | 55 | 0 | 0.0 | 2.0 | 0.12 | 0.30 | 0.30 | 94 | 1016.2 |
| 20260906164054 | 55 | 118 | 0.0 | 2.0 | 0.13 | 0.30 | 0.30 | 94 | 1016.2 |
| 20260906163554 | 55 | 0 | 0.0 | 1.0 | 0.13 | 0.29 | 0.29 | 94 | 1016.0 |
| 20260906163114 | 55 | 0 | 0.0 | 1.0 | 0.12 | 0.28 | 0.28 | 94 | 1016.1 |
| 20260906162555 | 55 | 0 | 0.0 | 0.0 | 0.12 | 0.27 | 0.27 | 94 | 1016.1 |
| 20260906162055 | 55 | 0 | 0.0 | 0.0 | 0.11 | 0.26 | 0.26 | 94 | 1016.0 |
| 20260906161601 | 55 | 0 | 0.0 | 0.0 | 0.10 | 0.25 | 0.25 | 94 | 1015.9 |
| 20260906161054 | 55 | 0 | 0.0 | 0.0 | 0.09 | 0.23 | 0.23 | 94 | 1015.9 |
| 20260906160555 | 55 | 0 | 0.0 | 0.0 | 0.08 | 0.22 | 0.22 | 94 | 1015.8 |
| 20260906160104 | 55 | 0 | 0.0 | 0.0 | 0.08 | 0.21 | 0.21 | 94 | 1015.8 |
| 20260906155555 | 55 | 0 | 0.0 | 1.0 | 0.08 | 0.20 | 0.20 | 94 | 1015.8 |
| 20260906155054 | 55 | 0 | 0.0 | 1.0 | 0.07 | 0.19 | 0.19 | 94 | 1015.8 |
| 20260906154606 | 55 | 0 | 0.0 | 1.0 | 0.07 | 0.18 | 0.18 | 94 | 1015.9 |
| 20260906154056 | 55 | 0 | 0.0 | 0.0 | 0.06 | 0.17 | 0.17 | 94 | 1016.0 |
| 20260906153556 | 55 | 0 | 0.0 | 0.0 | 0.05 | 0.16 | 0.16 | 93 | 1015.8 |
| 20260906153117 | 55 | 0 | 0.0 | 0.0 | 0.06 | 0.16 | 0.16 | 93 | 1015.8 |
| 20260906152555 | 55 | 0 | 0.0 | 0.0 | 0.05 | 0.15 | 0.15 | 93 | 1015.8 |
| 20260906152055 | 55 | 0 | 0.0 | 0.0 | 0.05 | 0.15 | 0.15 | 93 | 1015.8 |
| 20260906151605 | 55 | 0 | 0.0 | 0.0 | 0.06 | 0.15 | 0.15 | 93 | 1015.8 |
| 20260906151055 | 55 | 0 | 0.0 | 0.0 | 0.05 | 0.14 | 0.14 | 93 | 1015.8 |
| 20260906150557 | 55 | 0 | 0.0 | 0.0 | 0.05 | 0.14 | 0.14 | 93 | 1015.7 |
| 20260906150103 | 55 | 0 | 0.0 | 0.0 | 0.05 | 0.13 | 0.13 | 93 | 1015.6 |
| 20260906145558 | 55 | 0 | 0.0 | 0.0 | 0.04 | 0.12 | 0.12 | 93 | 1015.6 |
| 20260906145055 | 55 | 0 | 0.0 | 0.0 | 0.04 | 0.12 | 0.12 | 92 | 1015.6 |
| 20260906144603 | 55 | 0 | 0.0 | 0.0 | 0.04 | 0.11 | 0.11 | 92 | 1015.5 |
| 20260906144054 | 55 | 0 | 0.0 | 3.0 | 0.04 | 0.11 | 0.11 | 92 | 1015.5 |
| 20260906143555 | 55 | 0 | 0.0 | 3.0 | 0.05 | 0.11 | 0.11 | 92 | 1015.4 |
| 20260906143059 | 55 | 0 | 0.0 | 1.0 | 0.05 | 0.10 | 0.10 | 92 | 1015.4 |
| 20260906142555 | 56 | 0 | 0.0 | 1.0 | 0.05 | 0.10 | 0.10 | 92 | 1015.4 |
| 20260906142056 | 56 | 160 | 0.0 | 0.0 | 0.06 | 0.10 | 0.10 | 92 | 1015.3 |
| 20260906141602 | 56 | 0 | 0.0 | 0.0 | 0.06 | 0.09 | 0.09 | 92 | 1015.4 |
| 20260906141055 | 56 | 0 | 0.0 | 0.0 | 0.07 | 0.09 | 0.09 | 92 | 1015.3 |
| 20260906140555 | 56 | 0 | 0.0 | 3.0 | 0.06 | 0.08 | 0.08 | 92 | 1015.3 |
| 20260906140059 | 56 | 0 | 0.0 | 3.0 | 0.07 | 0.08 | 0.08 | 92 | 1015.3 |
| 20260906135555 | 56 | 0 | 0.0 | 3.0 | 0.07 | 0.08 | 0.08 | 91 | 1015.3 |
| 20260906135054 | 56 | 0 | 0.0 | 3.0 | 0.07 | 0.08 | 0.08 | 91 | 1015.3 |
| 20260906134618 | 56 | 0 | 0.0 | 3.0 | 0.06 | 0.07 | 0.07 | 91 | 1015.1 |
| 20260906134055 | 57 | 0 | 0.0 | 3.0 | 0.06 | 0.07 | 0.07 | 91 | 1015.0 |
| 20260906133555 | 57 | 0 | 0.0 | 1.0 | 0.05 | 0.06 | 0.06 | 91 | 1014.9 |
| 20260906133110 | 57 | 0 | 0.0 | 1.0 | 0.04 | 0.05 | 0.05 | 90 | 1014.9 |
| 20260906132555 | 57 | 0 | 0.0 | 1.0 | 0.04 | 0.05 | 0.05 | 90 | 1014.7 |
| 20260906132055 | 57 | 0 | 0.0 | 1.0 | 0.03 | 0.04 | 0.04 | 90 | 1014.6 |
| 20260906131602 | 57 | 0 | 0.0 | 2.0 | 0.02 | 0.03 | 0.03 | 90 | 1014.6 |
| 20260906131056 | 57 | 0 | 0.0 | 2.0 | 0.01 | 0.02 | 0.02 | 90 | 1014.7 |
| 20260906130557 | 57 | 0 | 0.0 | 2.0 | 0.01 | 0.02 | 0.02 | 90 | 1014.6 |
| 20260906130059 | 57 | 0 | 0.0 | 1.0 | 0.01 | 0.01 | 0.01 | 90 | 1014.6 |
| 20260906125555 | 57 | 0 | 0.0 | 1.0 | 0.01 | 0.01 | 0.01 | 90 | 1014.7 |
| 20260906125055 | 57 | 0 | 0.0 | 0.0 | 0.01 | 0.01 | 0.01 | 89 | 1014.7 |
| 20260906124601 | 58 | 0 | 0.0 | 0.0 | 0.01 | 0.01 | 0.01 | 89 | 1014.7 |
| 20260906124057 | 58 | 0 | 0.0 | 0.0 | 0.01 | 0.01 | 0.01 | 89 | 1014.6 |
| 20260906123554 | 58 | 0 | 0.0 | 0.0 | 0.01 | 0.01 | 0.01 | 89 | 1014.7 |
| 20260906123103 | 58 | 0 | 0.0 | 0.0 | 0.01 | 0.01 | 0.01 | 89 | 1014.7 |
| 20260906122555 | 58 | 0 | 0.0 | 2.0 | 0.01 | 0.01 | 0.01 | 89 | 1014.7 |
| 20260906122055 | 58 | 0 | 0.0 | 3.0 | 0.01 | 0.01 | 0.01 | 88 | 1014.9 |
| 20260906121607 | 58 | 0 | 0.0 | 3.0 | 0.01 | 0.01 | 0.01 | 88 | 1015.0 |
| 20260906121055 | 58 | 0 | 0.0 | 1.0 | 0.01 | 0.01 | 0.01 | 88 | 1015.0 |
| 20260906120554 | 58 | 0 | 0.0 | 1.0 | 0.01 | 0.01 | 0.01 | 88 | 1015.0 |
| 20260906115555 | 58 | 0 | 0.0 | 2.0 | 0.00 | 0.00 | 0.00 | 87 | 1015.2 |
| 20260906115054 | 58 | 0 | 0.0 | 3.0 | 0.00 | 0.00 | 0.00 | 87 | 1015.1 |
| 20260906114604 | 58 | 0 | 0.0 | 3.0 | 0.00 | 0.00 | 0.00 | 87 | 1015.0 |
| 20260906114057 | 58 | 0 | 0.0 | 3.0 | 0.00 | 0.00 | 0.00 | 87 | 1015.0 |
| 20260906113554 | 58 | 11 | 0.0 | 3.0 | 0.00 | 0.00 | 0.00 | 87 | 1014.9 |
| 20260906113102 | 58 | 0 | 0.0 | 3.0 | 0.00 | 0.00 | 0.00 | 87 | 1014.9 |
| 20260906112554 | 58 | 0 | 0.0 | 3.0 | 0.00 | 0.00 | 0.00 | 87 | 1015.0 |
| 20260906112058 | 58 | 0 | 0.0 | 3.0 | 0.00 | 0.00 | 0.00 | 87 | 1015.0 |
| 20260906111604 | 58 | 0 | 0.0 | 3.0 | 0.00 | 0.00 | 0.00 | 87 | 1014.9 |
| 20260906111058 | 58 | 36 | 0.0 | 3.0 | 0.00 | 0.00 | 0.00 | 87 | 1014.9 |
| 20260906110554 | 58 | 0 | 0.0 | 3.0 | 0.00 | 0.00 | 0.00 | 87 | 1015.0 |
| 20260906110104 | 58 | 14 | 0.0 | 3.0 | 0.00 | 0.00 | 0.00 | 87 | 1014.9 |
| 20260906105555 | 59 | 0 | 0.0 | 1.0 | 0.00 | 0.00 | 0.00 | 87 | 1014.7 |
| 20260906105054 | 59 | 0 | 0.0 | 2.0 | 0.00 | 0.00 | 0.00 | 87 | 1014.6 |
| 20260906104603 | 59 | 0 | 0.0 | 3.0 | 0.00 | 0.00 | 0.00 | 87 | 1014.7 |
| 20260906104055 | 59 | 0 | 0.0 | 3.0 | 0.00 | 0.00 | 0.00 | 87 | 1014.9 |
| 20260906103556 | 59 | 0 | 0.0 | 4.0 | 0.00 | 0.00 | 0.00 | 87 | 1014.8 |
| 20260906103110 | 59 | 0 | 0.0 | 4.0 | 0.00 | 0.00 | 0.00 | 87 | 1014.8 |
| 20260906102556 | 59 | 0 | 0.0 | 3.0 | 0.00 | 0.00 | 0.00 | 87 | 1014.7 |
| 20260906102058 | 59 | 0 | 0.0 | 3.0 | 0.00 | 0.00 | 0.00 | 86 | 1014.8 |
| 20260906101602 | 59 | 0 | 0.0 | 3.0 | 0.00 | 0.00 | 0.00 | 86 | 1014.8 |
| 20260906101135 | 59 | 36 | 0.0 | 2.0 | 0.00 | 0.00 | 0.00 | 86 | 1014.9 |
| 20260906100554 | 59 | 0 | 0.0 | 2.0 | 0.00 | 0.00 | 0.00 | 86 | 1014.7 |
| 20260906100104 | 59 | 0 | 0.0 | 3.0 | 0.00 | 0.00 | 0.00 | 86 | 1014.7 |
| 20260906095557 | 59 | 0 | 0.0 | 3.0 | 0.00 | 0.00 | 0.00 | 86 | 1014.7 |
| 20260906095101 | 59 | 0 | 0.0 | 2.0 | 0.00 | 0.00 | 0.00 | 86 | 1014.7 |
| 20260906094607 | 59 | 0 | 0.0 | 2.0 | 0.00 | 0.00 | 0.00 | 86 | 1014.7 |
| 20260906094057 | 59 | 0 | 0.0 | 3.0 | 0.00 | 0.00 | 0.00 | 86 | 1014.7 |
| 20260906093556 | 59 | 0 | 0.0 | 4.0 | 0.00 | 0.00 | 0.00 | 85 | 1014.7 |
| 20260906093107 | 59 | 0 | 0.0 | 4.0 | 0.00 | 0.00 | 0.00 | 85 | 1014.7 |
| 20260906092556 | 59 | 10 | 0.0 | 3.0 | 0.00 | 0.00 | 0.00 | 86 | 1014.7 |
| 20260906092056 | 59 | 0 | 0.0 | 3.0 | 0.00 | 0.00 | 0.00 | 85 | 1014.6 |
| 20260906091601 | 59 | 0 | 0.0 | 3.0 | 0.00 | 0.00 | 0.00 | 85 | 1014.6 |
| 20260906091057 | 59 | 0 | 0.0 | 0.0 | 0.00 | 0.00 | 0.00 | 85 | 1014.6 |
| 20260906090559 | 59 | 0 | 0.0 | 0.0 | 0.00 | 0.00 | 0.00 | 85 | 1014.7 |
| 20260906090117 | 59 | 0 | 0.0 | 0.0 | 0.00 | 0.00 | 0.00 | 84 | 1014.6 |
| 20260906085555 | 59 | 0 | 0.0 | 0.0 | 0.00 | 0.00 | 0.00 | 84 | 1014.7 |
| 20260906085055 | 59 | 0 | 0.0 | 0.0 | 0.00 | 0.00 | 0.00 | 84 | 1014.7 |
| 20260906084618 | 59 | 0 | 0.0 | 0.0 | 0.00 | 0.00 | 0.00 | 84 | 1014.7 |
| 20260906084056 | 60 | 0 | 0.0 | 0.0 | 0.00 | 0.00 | 0.00 | 84 | 1014.8 |
| 20260906083556 | 60 | 0 | 0.0 | 0.0 | 0.00 | 0.00 | 0.00 | 84 | 1014.7 |
| 20260906083109 | 60 | 0 | 0.0 | 0.0 | 0.00 | 0.00 | 0.00 | 83 | 1014.9 |
| 20260906082554 | 60 | 0 | 0.0 | 0.0 | 0.00 | 0.00 | 0.00 | 83 | 1014.7 |
| 20260906082055 | 60 | 0 | 0.0 | 0.0 | 0.00 | 0.00 | 0.00 | 83 | 1014.9 |
| 20260906081601 | 60 | 0 | 0.0 | 3.0 | 0.00 | 0.00 | 0.00 | 83 | 1014.7 |
| 20260906081055 | 60 | 0 | 0.0 | 3.0 | 0.00 | 0.00 | 0.00 | 83 | 1014.7 |
| 20260906080555 | 60 | 0 | 0.0 | 2.0 | 0.00 | 0.00 | 0.00 | 83 | 1014.6 |
| 20260906080126 | 60 | 0 | 0.0 | 3.0 | 0.00 | 0.00 | 0.00 | 83 | 1014.7 |
| 20260906075555 | 60 | 0 | 0.0 | 3.0 | 0.00 | 0.00 | 0.00 | 83 | 1014.7 |
| 20260906075055 | 60 | 0 | 0.0 | 3.0 | 0.00 | 0.00 | 0.00 | 82 | 1014.9 |
| 20260906074610 | 60 | 0 | 0.0 | 5.0 | 0.00 | 0.00 | 0.00 | 82 | 1014.7 |
| 20260906074055 | 60 | 0 | 0.0 | 5.0 | 0.00 | 0.00 | 0.00 | 82 | 1014.7 |
| 20260906073557 | 60 | 0 | 0.0 | 5.0 | 0.00 | 0.00 | 0.00 | 82 | 1014.8 |
| 20260906073114 | 60 | 0 | 0.0 | 3.0 | 0.00 | 0.00 | 0.00 | 82 | 1014.7 |
| 20260906072555 | 60 | 0 | 0.0 | 3.0 | 0.00 | 0.00 | 0.00 | 82 | 1014.8 |
| 20260906072055 | 60 | 0 | 0.0 | 0.0 | 0.00 | 0.00 | 0.00 | 81 | 1014.8 |
| 20260906071602 | 60 | 0 | 0.0 | 0.0 | 0.00 | 0.00 | 0.00 | 81 | 1014.8 |
| 20260906071057 | 60 | 0 | 0.0 | 0.0 | 0.00 | 0.00 | 0.00 | 81 | 1014.8 |
| 20260906070556 | 60 | 0 | 0.0 | 0.0 | 0.00 | 0.00 | 0.00 | 81 | 1014.8 |
| 20260906070106 | 60 | 0 | 0.0 | 0.0 | 0.00 | 0.00 | 0.00 | 81 | 1014.7 |
| 20260906065558 | 60 | 0 | 0.0 | 0.0 | 0.00 | 0.00 | 0.00 | 81 | 1014.6 |
| 20260906065056 | 60 | 0 | 0.0 | 0.0 | 0.00 | 0.00 | 0.00 | 80 | 1014.7 |
| 20260906064558 | 61 | 0 | 0.0 | 0.0 | 0.00 | 0.00 | 0.00 | 80 | 1014.7 |
| 20260906064055 | 61 | 0 | 0.0 | 0.0 | 0.00 | 0.00 | 0.00 | 80 | 1014.7 |
| 20260906063556 | 61 | 0 | 0.0 | 4.0 | 0.00 | 0.00 | 0.00 | 80 | 1014.8 |
| 20260906063101 | 61 | 0 | 0.0 | 4.0 | 0.00 | 0.00 | 0.00 | 80 | 1014.9 |
| 20260906062554 | 61 | 0 | 0.0 | 4.0 | 0.00 | 0.00 | 0.00 | 79 | 1014.8 |
| 20260906062055 | 61 | 0 | 0.0 | 3.0 | 0.00 | 0.00 | 0.00 | 79 | 1015.0 |
| 20260906061606 | 61 | 0 | 0.0 | 5.0 | 0.00 | 0.00 | 0.00 | 79 | 1014.9 |
| 20260906061059 | 61 | 0 | 0.0 | 5.0 | 0.00 | 0.00 | 0.00 | 79 | 1014.8 |
| 20260906060555 | 61 | 0 | 0.0 | 3.0 | 0.00 | 0.00 | 0.00 | 78 | 1015.0 |
| 20260906055555 | 61 | 23 | 0.0 | 2.0 | 0.00 | 0.00 | 0.00 | 78 | 1015.0 |
| 20260906055055 | 61 | 45 | 0.0 | 2.0 | 0.00 | 0.00 | 0.00 | 78 | 1015.2 |
| 20260906054601 | 61 | 0 | 0.0 | 3.0 | 0.00 | 0.00 | 0.00 | 77 | 1015.1 |
| 20260906054058 | 61 | 0 | 0.0 | 3.0 | 0.00 | 0.00 | 0.00 | 77 | 1015.2 |
| 20260906053554 | 61 | 18 | 0.0 | 2.0 | 0.00 | 0.00 | 0.00 | 77 | 1015.2 |
| 20260906053100 | 61 | 51 | 0.0 | 1.0 | 0.00 | 0.00 | 0.00 | 77 | 1015.1 |
| 20260906052601 | 61 | 0 | 0.0 | 2.0 | 0.00 | 0.00 | 0.00 | 76 | 1015.1 |
| 20260906052055 | 61 | 0 | 0.0 | 3.0 | 0.00 | 0.00 | 0.00 | 76 | 1015.2 |
| 20260906051605 | 61 | 0 | 0.0 | 3.0 | 0.00 | 0.00 | 0.00 | 75 | 1015.2 |
| 20260906051056 | 61 | 0 | 0.0 | 3.0 | 0.00 | 0.00 | 0.00 | 74 | 1015.1 |
| 20260906050558 | 61 | 0 | 0.0 | 2.0 | 0.00 | 0.00 | 0.00 | 73 | 1015.1 |
| 20260906050109 | 62 | 0 | 0.0 | 2.0 | 0.00 | 0.00 | 0.00 | 73 | 1015.1 |
| 20260906045557 | 62 | 0 | 0.0 | 1.0 | 0.00 | 0.00 | 0.00 | 72 | 1015.1 |
| 20260906045055 | 62 | 307 | 0.0 | 1.0 | 0.00 | 0.00 | 0.00 | 72 | 1015.2 |
| 20260906044603 | 62 | 0 | 0.0 | 0.0 | 0.00 | 0.00 | 0.00 | 71 | 1015.2 |
| 20260906044058 | 62 | 0 | 0.0 | 0.0 | 0.00 | 0.00 | 0.00 | 71 | 1015.2 |
| 20260906043555 | 62 | 0 | 0.0 | 0.0 | 0.00 | 0.00 | 0.00 | 71 | 1015.2 |
| 20260906043103 | 62 | 0 | 0.0 | 0.0 | 0.00 | 0.00 | 0.00 | 71 | 1015.3 |
| 20260906042555 | 63 | 0 | 0.0 | 0.0 | 0.00 | 0.00 | 0.00 | 70 | 1015.3 |
| 20260906042055 | 63 | 0 | 0.0 | 0.0 | 0.00 | 0.00 | 0.00 | 69 | 1015.3 |
| 20260906041604 | 63 | 0 | 0.0 | 0.0 | 0.00 | 0.00 | 0.00 | 69 | 1015.4 |
| 20260906041054 | 63 | 0 | 0.0 | 0.0 | 0.00 | 0.00 | 0.00 | 68 | 1015.4 |
| 20260906040601 | 63 | 0 | 0.0 | 0.0 | 0.00 | 0.00 | 0.00 | 68 | 1015.4 |
| 20260906035557 | 64 | 0 | 0.0 | 0.0 | 0.00 | 0.00 | 0.00 | 66 | 1015.4 |
| 20260906035057 | 64 | 0 | 0.0 | 0.0 | 0.00 | 0.00 | 0.00 | 66 | 1015.2 |
| 20260906034636 | 64 | 0 | 0.0 | 0.0 | 0.00 | 0.00 | 0.00 | 66 | 1015.3 |
| 20260906034057 | 64 | 0 | 0.0 | 0.0 | 0.00 | 0.00 | 0.00 | 66 | 1015.3 |
| 20260906033557 | 64 | 0 | 0.0 | 0.0 | 0.00 | 0.00 | 0.00 | 65 | 1015.2 |
| 20260906033103 | 65 | 0 | 0.0 | 0.0 | 0.00 | 0.00 | 0.00 | 65 | 1015.1 |
| 20260906032553 | 65 | 0 | 0.0 | 1.0 | 0.00 | 0.00 | 0.00 | 64 | 1015.1 |
| 20260906032054 | 65 | 0 | 0.0 | 1.0 | 0.00 | 0.00 | 0.00 | 64 | 1015.1 |
| 20260906031601 | 65 | 0 | 0.0 | 1.0 | 0.00 | 0.00 | 0.00 | 63 | 1015.0 |
| 20260906031057 | 66 | 0 | 0.0 | 0.0 | 0.00 | 0.00 | 0.00 | 63 | 1015.0 |
| 20260906030558 | 66 | 0 | 0.0 | 1.0 | 0.00 | 0.00 | 0.00 | 63 | 1015.0 |
| 20260906030100 | 66 | 0 | 0.0 | 1.0 | 0.00 | 0.00 | 0.00 | 63 | 1015.0 |
| 20260906025557 | 66 | 0 | 0.0 | 4.0 | 0.00 | 0.00 | 0.00 | 62 | 1015.0 |
| 20260906025057 | 67 | 0 | 0.0 | 4.0 | 0.00 | 0.00 | 0.00 | 62 | 1014.9 |
| 20260906024601 | 67 | 0 | 0.0 | 3.0 | 0.00 | 0.00 | 0.00 | 61 | 1015.0 |
| 20260906024057 | 67 | 293 | 0.0 | 1.0 | 0.00 | 0.00 | 0.00 | 62 | 1014.9 |
| 20260906023554 | 67 | 0 | 0.0 | 1.0 | 0.00 | 0.00 | 0.00 | 61 | 1014.9 |
| 20260906023102 | 68 | 0 | 0.0 | 1.0 | 0.00 | 0.00 | 0.00 | 61 | 1014.8 |
| 20260906022557 | 68 | 0 | 0.0 | 1.0 | 0.00 | 0.00 | 0.00 | 61 | 1014.9 |
| 20260906022054 | 68 | 0 | 0.0 | 1.0 | 0.00 | 0.00 | 0.00 | 60 | 1014.9 |
| 20260906021607 | 68 | 0 | 0.0 | 1.0 | 0.00 | 0.00 | 0.00 | 60 | 1014.9 |
| 20260906021059 | 69 | 0 | 0.0 | 1.0 | 0.00 | 0.00 | 0.00 | 59 | 1014.9 |
| 20260906020557 | 69 | 0 | 0.0 | 3.0 | 0.00 | 0.00 | 0.00 | 58 | 1014.9 |
| 20260906020106 | 69 | 0 | 0.0 | 3.0 | 0.00 | 0.00 | 0.00 | 57 | 1014.9 |
| 20260906015557 | 70 | 0 | 0.0 | 2.0 | 0.00 | 0.00 | 0.00 | 57 | 1014.9 |
| 20260906015057 | 70 | 0 | 0.0 | 3.0 | 0.00 | 0.00 | 0.00 | 56 | 1014.9 |
| 20260906014606 | 70 | 0 | 0.0 | 3.0 | 0.00 | 0.00 | 0.00 | 55 | 1015.0 |
| 20260906014053 | 70 | 279 | 1.0 | 4.0 | 0.00 | 0.00 | 0.00 | 55 | 1015.1 |
| 20260906013557 | 71 | 267 | 1.0 | 5.0 | 0.00 | 0.00 | 0.00 | 54 | 1015.1 |
| 20260906013108 | 71 | 0 | 0.0 | 5.0 | 0.00 | 0.00 | 0.00 | 54 | 1015.1 |
| 20260906012553 | 71 | 259 | 1.0 | 6.0 | 0.00 | 0.00 | 0.00 | 54 | 1015.0 |
| 20260906012057 | 71 | 273 | 2.0 | 6.0 | 0.00 | 0.00 | 0.00 | 54 | 1015.1 |
| 20260906011603 | 71 | 271 | 2.0 | 7.0 | 0.00 | 0.00 | 0.00 | 53 | 1015.0 |
| 20260906011057 | 71 | 298 | 1.0 | 7.0 | 0.00 | 0.00 | 0.00 | 53 | 1015.0 |
| 20260906010557 | 72 | 308 | 2.0 | 7.0 | 0.00 | 0.00 | 0.00 | 52 | 1015.0 |
| 20260906005554 | 72 | 270 | 2.0 | 7.0 | 0.00 | 0.01 | 0.00 | 51 | 1014.9 |
| 20260906005057 | 72 | 296 | 1.0 | 7.0 | 0.00 | 0.01 | 0.00 | 52 | 1014.9 |
| 20260906004605 | 73 | 302 | 1.0 | 5.0 | 0.00 | 0.01 | 0.00 | 52 | 1015.0 |
| 20260906004054 | 73 | 297 | 1.0 | 7.0 | 0.00 | 0.01 | 0.00 | 52 | 1015.0 |
| 20260906003557 | 73 | 274 | 2.0 | 7.0 | 0.00 | 0.01 | 0.00 | 50 | 1015.0 |
| 20260906003105 | 74 | 300 | 2.0 | 7.0 | 0.00 | 0.01 | 0.00 | 49 | 1015.1 |
| 20260906002557 | 74 | 290 | 1.0 | 5.0 | 0.00 | 0.01 | 0.00 | 48 | 1015.1 |
| 20260906002057 | 74 | 25 | 1.0 | 5.0 | 0.00 | 0.01 | 0.00 | 48 | 1015.0 |
| 20260906001559 | 74 | 65 | 1.0 | 5.0 | 0.00 | 0.01 | 0.00 | 49 | 1015.1 |
| 20260906001101 | 74 | 5 | 1.0 | 4.0 | 0.00 | 0.01 | 0.00 | 51 | 1015.0 |
| 20260906000557 | 73 | 51 | 0.0 | 5.0 | 0.00 | 0.01 | 0.00 | 51 | 1015.0 |
| 20260906000111 | 73 | 30 | 2.0 | 5.0 | 0.00 | 0.01 | 0.00 | 50 | 1015.1 |
| 20260905235557 | 74 | 0 | 1.0 | 4.0 | 0.00 | 0.01 | 0.00 | 52 | 1015.1 |
| 20260905235054 | 73 | 0 | 0.0 | 4.0 | 0.00 | 0.01 | 0.00 | 51 | 1015.0 |
| 20260905234621 | 73 | 0 | 2.0 | 5.0 | 0.00 | 0.01 | 0.00 | 50 | 1014.9 |
| 20260905234053 | 73 | 319 | 1.0 | 5.0 | 0.00 | 0.01 | 0.00 | 51 | 1015.0 |
| 20260905233558 | 73 | 200 | 1.0 | 3.0 | 0.00 | 0.01 | 0.00 | 52 | 1015.0 |
| 20260905233102 | 73 | 148 | 0.0 | 5.0 | 0.00 | 0.01 | 0.00 | 51 | 1015.0 |
| 20260905232557 | 73 | 300 | 1.0 | 6.0 | 0.00 | 0.01 | 0.00 | 51 | 1015.1 |
| 20260905232057 | 73 | 299 | 1.0 | 6.0 | 0.00 | 0.01 | 0.00 | 52 | 1015.1 |
| 20260905231605 | 73 | 237 | 0.0 | 7.0 | 0.00 | 0.01 | 0.00 | 52 | 1015.1 |
| 20260905231056 | 72 | 293 | 1.0 | 7.0 | 0.00 | 0.01 | 0.00 | 51 | 1015.2 |
| 20260905230557 | 72 | 339 | 3.0 | 7.0 | 0.00 | 0.01 | 0.00 | 50 | 1015.2 |
| 20260905230106 | 72 | 317 | 1.0 | 3.0 | 0.00 | 0.01 | 0.00 | 53 | 1015.2 |
| 20260905225557 | 72 | 0 | 0.0 | 3.0 | 0.00 | 0.03 | 0.00 | 53 | 1015.2 |
| 20260905225057 | 71 | 269 | 1.0 | 4.0 | 0.00 | 0.03 | 0.00 | 53 | 1015.3 |
| 20260905224616 | 71 | 279 | 1.0 | 7.0 | 0.00 | 0.03 | 0.00 | 54 | 1015.3 |
| 20260905224058 | 71 | 279 | 3.0 | 7.0 | 0.00 | 0.03 | 0.00 | 54 | 1015.4 |
| 20260905223557 | 72 | 230 | 3.0 | 8.0 | 0.00 | 0.03 | 0.00 | 54 | 1015.4 |
| 20260905223100 | 72 | 203 | 3.0 | 8.0 | 0.00 | 0.03 | 0.00 | 54 | 1015.4 |
| 20260905222557 | 72 | 0 | 1.0 | 6.0 | 0.00 | 0.03 | 0.00 | 54 | 1015.4 |
| 20260905222057 | 71 | 254 | 0.0 | 6.0 | 0.00 | 0.03 | 0.00 | 56 | 1015.5 |
| 20260905221602 | 70 | 284 | 1.0 | 5.0 | 0.00 | 0.03 | 0.00 | 56 | 1015.5 |
| 20260905221058 | 70 | 255 | 1.0 | 6.0 | 0.00 | 0.03 | 0.00 | 57 | 1015.6 |
| 20260905220553 | 70 | 0 | 2.0 | 6.0 | 0.00 | 0.03 | 0.00 | 58 | 1015.5 |
| 20260905220118 | 70 | 0 | 2.0 | 5.0 | 0.00 | 0.03 | 0.00 | 58 | 1015.6 |
| 20260905215637 | 70 | 217 | 1.0 | 5.0 | 0.00 | 0.13 | 0.00 | 58 | 1015.6 |
| 20260905215056 | 70 | 0 | 1.0 | 6.0 | 0.00 | 0.13 | 0.00 | 57 | 1015.7 |
| 20260905214603 | 70 | 253 | 3.0 | 6.0 | 0.00 | 0.13 | 0.00 | 56 | 1015.7 |